Regional Weather Roundup
Issued by NWS

Home | Current Version | Previous Version | Text Only | Print | Product List | Glossary On
Versions: 1 2 3 4 5 6 7 8 9 10 11 12 13 14 15 16 17 18 19 20 21 22 23 24 25 26 27 28 29 30 31 32 33 34 35 36 37 38 39 40 41 42 43 44 45 46 47 48 49 50
000
ASUS42 KKEY 182210
RWRKEY

FLORIDA REGIONAL WEATHER ROUNDUP FOR THE FLORIDA KEYS
NATIONAL WEATHER SERVICE KEY WEST FLORIDA
600 PM EDT FRI AUG 18 2017

...SOUTH FLORIDA AND THE KEYS...

CITY           SKY/WX    TMP DP  RH WIND       PRES   REMARKS
FORT MYERS     SUNNY     89  77  67 W13       29.97R HX 101
SW REGIONAL AP SUNNY     90  73  57 NW10G17   29.97R HX  98
NAPLES         MOSUNNY   90  76  63 NW10      29.96S HX 101
MIAMI          MOSUNNY   89  74  60 E12G21    29.99R HX  98
WEST KENDALL   MOSUNNY   91  74  57 SE10      29.98R HX 100
HOMESTEAD      SUNNY     89  78  70 E10       29.97R HX 103
MARATHON       SUNNY     91  77  63 E8        29.96S HX 104
BOCA CHICA NAS PTSUNNY   88  78  72 E9        29.97R HX 101
KEY WEST INTL  CLOUDY    88  75  65 SE9       29.98R HX  97

...INTERNATIONAL WEATHER...

CITY           SKY/WX    TMP DP  RH WIND       PRES   REMARKS
NASSAU BAHAMAS PTSUNNY   91  77  62 NE9       29.98S HX 105
CANCUN MEXICO  PTSUNNY   90  73  58 E8        29.95S HX  98
COZUMEL MEXICO PTSUNNY   86  79  79 E6        29.93S HX  99

ADJACENT COASTAL WATERS...

STATION/POSITION TIME  SKY/WX   TEMP    WIND        PRES    WAVE
                                AIR SEA DIR/SP/G            HT/PER
                 (UTC)          (F)     (DEG/KT/KT) (MB)    (FT/S)
PULASKI SHOAL LI 2200            87      80/  6/  7 1015.5R
SAND KEY         2150            85     120/  8/ 10 1015.7R
LONG KEY         NOT AVBL
MOLASSES REEF    2100            86 87  120/ 10/ 11 1015.2F
FOWEY ROCKS      2100            86 87  100/  8/ 10 1015.6F
Buoy 42097       2130               88                N/A     1/ 3

$$



USA.gov is the U.S. government's official web portal to all federal, state and local government web resources and services.